Showing default

FLOCK 4Q 20, 58313

Orbit data source: Space-Track

FLOCK 4Q 20, 58313 is a payload satellite owned by Planet (US) in SSO that was launched on Sat, 11 Nov 2023 UTC via an FALCON 9 launch vehicle from the Air Force Western Test Range (AFWTR). Payload-class satellites include a variety of spacecraft equipped with specific instruments for various scientific and technological missions. These include communications satellites like Starlink; space stations such as the ISS; scientific satellites like the Hubble; Earth observation satellites from companies like Planet Labs, Umbra, and HawkEye 360; GPS; miniature CubeSats for education and research; and military/defense satellites.

Loading next visibility...
Identifier
58313, 2023-174BK
Orbit
SSO
Country
Flag of USUS
Related business
Manufacturer
Planet
Mission
Operational Commercial Imaging
Bus & Motor
CUBESAT 3U, Unknown motor
Mass
5.7 kg wet, 5.7 kg dry
Launch date (UTC)
2023-11-11 (2 years ago)
Launch vehicle
FALCON 9
Launch site
Air Force Western Test Range (AFWTR)
Object type
Payload
Rocket body
Debris
Shape & HBR
Box + 2 Pan, 1.0 m
Radar Cross Section
0.072 m², Medium (>0.1 m² and < 1m²)

Expand to show TLE details & history
Last TLE update: 7 hours ago

TLE from 7 hours ago
0 FLOCK 4Q 20
1 58313U 23174BK  25289.14988729  .00031218  00000-0  65877-3 0  9992
2 58313  97.4109  12.1080 0007002 293.6708  66.3805 15.45133202108146
Epoch: 2025-10-16T03:35Z
TLE epoch observation values (Epoch: 2025-10-16T03:35:50.261Z)
Latitude
-0.0001°
Longitude
-66.76516°
Altitude
432.203 km
Speed
7.653 km/s
True Right ascension
00h 48m 25s
True Declination
0° 00' 00"
Sunlit
Object was in full shadow at epoch
Visualization orbit readout
Latitude
Unknown
Longitude
Unknown
Altitude
Unknown
Speed
Unknown
Apparent Right ascension
Unknown
Apparent Declination
Unknown
Sunlit
N/A
Visualization observer readout
Local Sidereal Time
05:43:39
Azimuth
Unknown
Elevation
Unknown
Doppler factor
Unknown
Orbital elements
Apogee altitude
432.685 km
Perigee altitude
423.154 km
Semi-major axis
6,806.056 km
Eccentricity
0.0007
Inclination
97.4109°
RAAN
12.108°
Arg. of periapsis
293.6708°
True anomaly
66.45404°
Mean anomaly
66.3805°
Eccentric anomaly
66.41727°
Mean motion
3.86545 °/min
Orbital period
93.13 mins
BSTAR
0.00065877
Loading maneuver chart data...
Computing Atmospheric mass density...
Loading historical data...
Loading historical data...
Loading historical data...
Loading historical data...
Loading historical data...
Loading historical data...
Loading historical data...

Documentation

Showing up to 5 results
|